[[{"header":{"parameterUnit":"m.s-1","parameterCategory":1,"la1":30.2991,"la2":30.254,"lo1":-89.0895,"lo2":-89.0444,"dy":0.0017,"dx":0.0017,"nx":28,"ny":28,"refTime":"2025-01-05T09:00:00:Z","depth":0,"parameterNumber":2,"parameterNumberName":"U-component_of_WINDS"},"data":[0,0,0,0,0,0,0,0,0,0,0,0,0,0,0,0,0,0,0,0,0,0,0,0,0,0,0,0,0,0,0,0,0,0,0,0,0,0,0,0,0,0,0,0,0,0,0,0,0,0,0,0,0,0,0,0,0,0,2.35,2.35,0,2.3441,2.344,2.344,2.3368,2.3367,2.3366,2.3365,2.3306,2.3305,2.3305,0,0,0,0,0,0,0,0,0,0,0,0,0,2.3553,2.3552,2.35,2.3499,2.3499,2.3441,2.344,2.3439,2.3368,2.3367,2.3365,2.3364,2.3306,2.3305,2.3305,0,0,0,0,0,0,0,0,0,0,0,0,0,2.3516,2.3552,2.35,2.3456,2.3452,2.3441,2.344,2.3439,2.3369,2.3367,2.3365,2.3364,2.3306,2.3305,2.3305,2.3333,0,0,2.3302,2.3302,0,0,0,0,0,0,0,0,2.3518,2.3514,2.3463,2.3459,2.3454,2.341,2.3437,2.3404,2.3369,2.34,2.3365,2.3363,2.3342,2.3338,2.3331,2.3331,2.3328,2.3302,2.3302,2.3301,2.3301,0,0,0,0,0,0,0,2.352,2.3516,2.3477,2.3463,2.3457,2.344,2.3433,2.343,2.3381,2.3397,2.3392,2.3386,2.3339,2.3332,2.3329,2.3327,2.3302,2.3301,2.3301,2.3301,2.3347,2.3349,0,0,0,0,0,0,2.3529,2.3518,2.3479,2.3475,2.3482,2.344,2.3432,2.3426,2.3381,2.3373,2.3387,2.3383,2.3334,2.333,2.3327,2.3357,2.3301,2.3301,2.33,2.3346,2.3348,2.335,0,0,0,0,0,0,2.3531,2.3527,2.3481,2.3495,2.3488,2.3441,2.3435,2.3426,2.3418,2.3373,2.3365,2.3389,2.3332,2.3328,2.3332,2.3354,2.33,2.3299,2.3344,2.3346,2.3349,2.3418,0,0,0,0,0,0,2.3533,2.3527,2.3538,2.3496,2.3488,2.3487,2.3436,2.3426,2.3417,2.341,2.3372,2.3365,2.3331,2.3334,2.3331,2.3352,2.3299,2.3342,2.3345,2.3348,2.3414,2.3423,2.3431,0,0,0,0,0,2.3535,2.356,2.3538,2.3534,2.3499,2.3489,2.3484,2.3444,2.3419,2.3429,2.34,2.3366,2.3352,2.3335,2.3331,2.3352,2.334,2.3344,2.3348,2.341,2.3421,2.3431,0,0,0,0,0,0,2.3606,2.3554,2.3529,2.3542,2.352,2.3477,2.3488,2.3457,2.3443,2.3437,2.3389,2.3381,2.3391,2.3372,2.3354,2.3377,2.3341,2.3344,2.339,2.34,2.3408,2.3412,2.3298,0,0,0,0,0,2.3623,2.3618,2.3573,2.3588,2.3579,2.3536,2.3529,2.35,2.3476,2.3467,2.3439,2.3417,2.3408,2.3403,2.3392,2.3411,2.3402,2.3424,2.3432,2.3439,2.3443,2.3451,2.346,2.3362,2.3362,2.3362,0,0,2.3658,2.3629,2.3629,2.3602,2.3582,2.3579,2.3528,2.3527,2.3524,2.3467,2.3469,2.3448,2.342,2.3432,2.3436,2.3417,2.3468,2.3444,2.345,2.345,2.3456,2.3466,2.3474,2.3365,2.3364,2.3364,0,0,2.372,2.3698,2.3708,2.3689,2.3659,2.363,2.3633,2.3594,2.3577,2.3579,2.3536,2.3532,2.3517,2.3499,2.3488,2.3544,2.3512,2.3542,2.3586,2.3595,2.3603,2.361,2.363,2.3637,2.3546,2.3546,2.3546,0,2.3768,2.3761,2.3718,2.3719,2.3708,2.3656,2.3666,2.365,2.3618,2.3612,2.3591,2.3571,2.3549,2.3556,2.3569,2.3562,2.3564,2.3546,2.3605,2.3612,2.3617,2.3635,2.3643,2.355,2.3549,2.3549,2.3549,0,2.3821,2.3817,2.3829,2.3799,2.379,2.3795,2.3753,2.3749,2.3721,2.3695,2.3697,2.3669,2.3651,2.3651,2.3623,2.3654,2.3643,2.3614,2.3576,2.3631,2.3647,2.3654,2.3555,2.3554,2.3553,2.3552,0,0,2.3926,2.3872,2.3877,2.3863,2.3826,2.3822,2.3826,2.3808,2.3806,2.3786,2.3788,2.3776,2.375,2.3737,2.3708,2.3716,2.3762,2.3686,2.3685,2.3701,2.3794,2.3815,2.3824,2.374,2.3742,2.3743,2.3796,0,2.3981,2.3984,2.3945,2.3958,2.3954,2.3905,2.3908,2.3886,2.3861,2.3854,2.3827,2.382,2.3785,2.3778,2.3783,2.3755,2.378,2.3751,2.3742,2.3742,2.375,2.3833,2.3855,2.3907,2.3802,2.3803,2.3804,0,2.4046,2.4029,2.4042,2.4005,2.4002,2.4005,2.3986,2.398,2.3954,2.3936,2.3922,2.3888,2.389,2.3854,2.3855,2.3837,2.3831,2.3817,2.3818,2.3815,2.3776,2.3832,2.3922,2.393,2.3814,2.3813,2.3812,0,2.4121,2.4102,2.4107,2.4097,2.4053,2.4057,2.4039,2.4012,2.4004,2.3987,2.3981,2.3965,2.3957,2.3945,2.3908,2.3886,2.3914,2.3875,2.3899,2.39,2.3907,2.3907,2.3997,2.3904,2.3904,2.3903,2.3903,0,2.4187,2.4196,2.414,2.4143,2.4153,2.4109,2.4119,2.4097,2.4073,2.4071,2.4028,2.4027,2.3979,2.3973,2.3944,2.3949,2.3946,2.3931,2.3923,2.3935,2.3937,2.393,2.3925,2.3905,2.3905,2.3905,2.3904,0,2.4272,2.4234,2.4237,2.4196,2.4186,2.4195,2.4159,2.4161,2.4134,2.4132,2.4129,2.4087,2.4078,2.404,2.4022,2.4002,2.4017,2.4002,2.4026,2.4021,2.4046,2.4044,2.4135,2.4145,2.4046,2.4047,2.4048,0,2.4316,2.4322,2.4282,2.4277,2.4261,2.4255,2.4246,2.4203,2.4196,2.4167,2.4172,2.416,2.4147,2.4135,2.4103,2.4089,2.4073,2.4105,2.407,2.4082,2.4073,2.4073,2.4073,2.4113,2.4114,2.4115,2.4116,0,2.4398,2.4379,2.4368,2.4351,2.4342,2.4326,2.4308,2.4307,2.4259,2.4254,2.4243,2.4234,2.4215,2.4203,2.4184,2.4166,2.4133,2.4128,2.4132,2.4144,2.4157,2.415,2.4046,2.4126,2.4125,2.4124,2.4123,2.4123,2.4463,2.4466,2.4439,2.4428,2.441,2.4394,2.4393,2.4366,2.4357,2.4338,2.4313,2.4307,2.4281,2.4252,2.4236,2.423,2.4212,2.4219,2.4221,2.4223,2.4229,2.4159,2.4227,2.4227,2.4226,2.4226,2.4226,0,2.4543,2.4522,2.4513,2.4489,2.4481,2.4451,2.443,2.4425,2.4419,2.4398,2.4386,2.4375,2.4363,2.433,2.4315,2.4317,2.4302,2.4315,2.4314,2.431,2.4246,2.4243,2.4327,2.4327,2.4327,2.4327,2.4327,2.4327,2.4583,2.4587,2.4565,2.456,2.4539,2.4532,2.4522,2.4508,2.4491,2.448,2.4469,2.4448,2.4422,2.4405,2.4393,2.4384,2.438,2.4398,2.4384,2.4324,2.4315,2.4305,2.4303,2.4398,2.4398,2.4449,2.4449,2.4449]},{"header":{"parameterUnit":"m.s-1","parameterCategory":1,"la1":30.2991,"la2":30.254,"lo1":-89.0895,"lo2":-89.0444,"dy":0.0017,"dx":0.0017,"nx":28,"ny":28,"refTime":"2025-01-05T09:00:00:Z","depth":0,"parameterNumber":3,"parameterNumberName":"V-component_of_WINDS"},"data":[0,0,0,0,0,0,0,0,0,0,0,0,0,0,0,0,0,0,0,0,0,0,0,0,0,0,0,0,0,0,0,0,0,0,0,0,0,0,0,0,0,0,0,0,0,0,0,0,0,0,0,0,0,0,0,0,0,0,7.5348,7.5349,0,7.5419,7.542,7.5421,7.54,7.5399,7.5398,7.5396,7.5465,7.5469,7.5472,0,0,0,0,0,0,0,0,0,0,0,0,0,7.5194,7.5196,7.5348,7.5349,7.535,7.5419,7.542,7.5421,7.5401,7.5399,7.5397,7.5396,7.5464,7.5468,7.5472,0,0,0,0,0,0,0,0,0,0,0,0,0,7.5262,7.5197,7.5348,7.5348,7.5349,7.5419,7.542,7.5421,7.5401,7.5399,7.5397,7.5395,7.5463,7.5468,7.5472,7.5545,0,0,7.5487,7.5489,0,0,0,0,0,0,0,0,7.5258,7.5268,7.5347,7.5348,7.5349,7.5399,7.5391,7.5462,7.5402,7.5381,7.5396,7.5394,7.5445,7.5451,7.5469,7.5548,7.5551,7.5487,7.549,7.5492,7.5494,0,0,0,0,0,0,0,7.5253,7.5265,7.5376,7.5349,7.535,7.5344,7.5352,7.5404,7.5424,7.5383,7.5382,7.539,7.5445,7.5464,7.547,7.5552,7.5487,7.5492,7.5495,7.5496,7.5696,7.5699,0,0,0,0,0,0,7.5248,7.5261,7.5374,7.5378,7.5298,7.5349,7.5357,7.5385,7.5424,7.5427,7.5392,7.5389,7.5457,7.5465,7.5473,7.5562,7.5492,7.5497,7.55,7.5694,7.5697,7.57,0,0,0,0,0,0,7.5245,7.5259,7.5371,7.5319,7.5333,7.5354,7.5385,7.5388,7.5407,7.5431,7.5434,7.5409,7.5456,7.5466,7.5528,7.5564,7.5499,7.5503,7.5691,7.5695,7.5698,7.5739,0,0,0,0,0,0,7.5241,7.5258,7.5286,7.532,7.5336,7.5426,7.5388,7.539,7.5416,7.5412,7.5447,7.545,7.5455,7.5521,7.5533,7.5569,7.5507,7.5688,7.5693,7.5697,7.5735,7.5744,7.5752,0,0,0,0,0,7.5235,7.5293,7.5287,7.5301,7.5372,7.5428,7.5437,7.5442,7.5419,7.5447,7.5462,7.5449,7.5558,7.5527,7.554,7.5579,7.5686,7.5691,7.5697,7.5731,7.5742,7.5751,0,0,0,0,0,0,7.5261,7.5298,7.5291,7.5362,7.5392,7.5424,7.546,7.5453,7.5489,7.5485,7.5488,7.5496,7.556,7.5575,7.5541,7.5652,7.5618,7.5627,7.564,7.565,7.5659,7.5654,7.5511,0,0,0,0,0,7.5275,7.5319,7.5348,7.5408,7.5423,7.5439,7.5464,7.5465,7.5496,7.5508,7.5528,7.5557,7.5598,7.5625,7.5664,7.5737,7.5744,7.5769,7.5778,7.5785,7.5792,7.5833,7.5845,7.5718,7.5718,7.5718,0,0,7.5305,7.533,7.5357,7.5414,7.5437,7.5481,7.545,7.5498,7.5531,7.5515,7.5576,7.5591,7.5624,7.5693,7.5723,7.5707,7.5829,7.5792,7.5797,7.5801,7.584,7.5852,7.5863,7.5721,7.5721,7.572,0,0,7.5381,7.5404,7.5458,7.5482,7.5519,7.5529,7.5542,7.5576,7.5586,7.5647,7.5637,7.5675,7.5745,7.577,7.5791,7.5879,7.5869,7.5891,7.5936,7.5976,7.5986,7.5995,7.6027,7.6039,7.5899,7.5899,7.5899,0,7.5413,7.548,7.5486,7.5536,7.5561,7.555,7.5604,7.5627,7.5674,7.5692,7.5673,7.5762,7.5783,7.5858,7.588,7.5897,7.5912,7.5888,7.5984,7.5993,7.6002,7.6033,7.6045,7.5901,7.5901,7.5901,7.59,0,7.5518,7.5565,7.5604,7.5651,7.5681,7.5732,7.5745,7.5775,7.5774,7.5786,7.5849,7.5874,7.5919,7.5937,7.5935,7.6012,7.6001,7.5983,7.595,7.6016,7.6046,7.6058,7.5905,7.5904,7.5903,7.5903,0,0,7.5613,7.5664,7.5678,7.57,7.574,7.5776,7.5827,7.5872,7.5898,7.5931,7.5974,7.6034,7.6019,7.6044,7.6045,7.608,7.615,7.6058,7.6059,7.6076,7.6237,7.6251,7.6265,7.6143,7.6145,7.6147,7.6235,0,7.5694,7.5785,7.5792,7.5875,7.5919,7.591,7.5955,7.5984,7.5997,7.6036,7.605,7.6093,7.6069,7.6084,7.6118,7.6134,7.6182,7.6128,7.6184,7.6185,7.6177,7.628,7.6294,7.6376,7.6246,7.6248,7.6249,0,7.58,7.5839,7.5926,7.5962,7.5981,7.6021,7.6064,7.6101,7.6134,7.6141,7.617,7.6166,7.6219,7.6183,7.6256,7.6218,7.6241,7.6253,7.6256,7.6262,7.6222,7.629,7.6402,7.6414,7.6267,7.6266,7.6264,0,7.5863,7.5935,7.5998,7.6017,7.6059,7.6088,7.6107,7.6138,7.6165,7.6202,7.622,7.6262,7.6285,7.6317,7.6326,7.6299,7.6399,7.6363,7.6406,7.6406,7.6428,7.6427,7.6547,7.6441,7.6441,7.6441,7.6441,0,7.5953,7.6007,7.6027,7.6065,7.6126,7.6133,7.6192,7.6209,7.6237,7.6279,7.6272,7.6311,7.6319,7.636,7.6366,7.6426,7.6436,7.6443,7.6445,7.6445,7.6444,7.6461,7.6456,7.6444,7.6443,7.6443,7.6442,0,7.6033,7.6048,7.6116,7.6151,7.6161,7.6205,7.6235,7.6271,7.6284,7.6337,7.6349,7.6369,7.6417,7.6428,7.6484,7.6488,7.656,7.6555,7.6549,7.6549,7.6592,7.6589,7.6728,7.6747,7.6628,7.6629,7.663,0,7.609,7.6132,7.6173,7.6201,7.6222,7.6266,7.6295,7.6303,7.6333,7.6375,7.6407,7.6454,7.6492,7.6568,7.6587,7.663,7.6627,7.6672,7.6633,7.6632,7.6629,7.6627,7.6632,7.668,7.6681,7.6682,7.6683,0,7.6191,7.6197,7.6239,7.6284,7.6318,7.6354,7.6387,7.641,7.6424,7.6457,7.6507,7.6537,7.6595,7.6642,7.6685,7.6703,7.6696,7.6696,7.6708,7.6709,7.6705,7.6709,7.6571,7.6693,7.6692,7.6691,7.669,7.669,7.6262,7.63,7.6335,7.6382,7.6409,7.6441,7.6478,7.6497,7.6538,7.6588,7.659,7.6644,7.6676,7.6734,7.6756,7.6798,7.6783,7.6801,7.6806,7.681,7.6815,7.6698,7.6805,7.6805,7.6805,7.6804,7.6804,0,7.6364,7.6387,7.643,7.6479,7.6516,7.6507,7.6544,7.6576,7.6624,7.6656,7.6694,7.6751,7.6797,7.682,7.6866,7.6895,7.6893,7.6906,7.6905,7.691,7.6824,7.681,7.6908,7.6908,7.6908,7.6908,7.6908,7.6908,7.6421,7.6485,7.6495,7.6572,7.6594,7.6648,7.6671,7.67,7.6726,7.6791,7.683,7.6845,7.6874,7.6921,7.6963,7.6968,7.6986,7.7002,7.7006,7.6926,7.6915,7.6905,7.6892,7.7005,7.7005,7.7088,7.7089,7.7089]}]]